Regional Weather Roundup
Issued by NWS Charleston, WV

Home | Current Version | Previous Version | Graphics & Text | Print | Product List | Glossary On
Versions: 1 2 3 4 5 6 7 8 9 10 11 12 13 14 15 16 17 18 19 20 21 22 23 24 25 26 27 28 29 30 31 32 33 34 35 36 37 38 39 40 41 42 43 44 45 46 47 48 49 50
000
ASUS41 KRLX 090710
RWRRLX
West Virginia Regional Weather Roundup
National Weather Service Charleston WV
200 AM EST TUE FEB 09 2016

Note: "fair" indicates few or no clouds below 12,000 feet with no
significant weather and/or obstructions to visibility.

WVZ003-090800-
Northern Panhandle of West Virginia

CITY           SKY/WX    TMP DP  RH WIND       PRES   REMARKS
WHEELING       LGT SNOW  32  30  92 CALM      29.55F FOG
$$

WVZ009-090800-
Northwest West Virginia

CITY           SKY/WX    TMP DP  RH WIND       PRES   REMARKS
PARKERSBURG    LGT SNOW  32  30  92 SW6       29.60F FOG
$$

WVZ006-090800-
Western West Virginia

CITY           SKY/WX    TMP DP  RH WIND       PRES   REMARKS
HUNTINGTON     LGT SNOW  29  22  75 W9G20     29.68R
$$

WVZ015-090800-
West Central West Virginia

CITY           SKY/WX    TMP DP  RH WIND       PRES   REMARKS
CHARLESTON     LGT SNOW  32  29  88 W8        29.63F VSB 1
$$

WVZ022-031-090800-
North Central West Virginia

CITY           SKY/WX    TMP DP  RH WIND       PRES   REMARKS
CLARKSBURG     LGT SNOW  32  31  96 SW8       29.56F FOG
MORGANTOWN     CLOUDY    33  29  85 W3        29.56F FOG
$$

WVZ025-035-042-045-090800-
Southern West Virginia

CITY           SKY/WX    TMP DP  RH WIND       PRES   REMARKS
BECKLEY        CLOUDY    27  24  89 W5        29.56F
LOGAN          CLOUDY    28  27  93 W10       29.62S
BLUEFIELD      LGT SNOW  25  21  85 NW9       29.56F FOG
LEWISBURG      CLOUDY    32  28  83 W3        29.56F
$$

WVZ047-090800-
Northern Mountains of West Virginia

CITY           SKY/WX    TMP DP  RH WIND       PRES   REMARKS
ELKINS         LGT SNOW  30  27  88 S6        29.55F FOG
$$

WVZ052-090800-
Eastern Panhandle of West Virginia

CITY           SKY/WX    TMP DP  RH WIND       PRES   REMARKS
MARTINSBURG    CLOUDY    35  33  92 CALM      29.58F
PETERSBURG     CLOUDY    33  32  96 CALM      29.57F
$$



USA.gov is the U.S. government's official web portal to all federal, state and local government web resources and services.